Location: Paderno d�Adda
(45.6667°N, 9.4333°E)
Time: 05:57:37
(UTC+00:00)

CENTAUR R/B - Pass Details

Date: 19 January 2021
Orbit: 742 x 1446 km, 63.5° (Epoch: 02 March)

Event Time Altitude Azimuth Distance (km) Brightness Sun altitude
Rises 06:12:58 0° 192° (SSW) 3,337 5.4 -7.7°
Reaches altitude 10° 06:15:21 10° 185° (S) 2,480 4.9 -7.3°
Maximum altitude 06:20:44 43° 116° (ESE) 1,315 4.0 -6.5°
Drops below altitude 10° 06:27:04 10° 48° (NE) 2,924 5.3 -5.4°
Sets 06:30:05 0° 42° (NE) 4,001 5.9 -4.9°
